Regional Weather Roundup
Issued by NWS San Diego, CA

Home | Current Version | Previous Version | Text Only | Print | Product List | Glossary On
Versions: 1 2 3 4 5 6 7 8 9 10 11 12 13 14 15 16 17 18 19 20 21 22 23 24 25 26 27 28 29 30 31 32 33 34 35 36 37 38 39 40 41 42 43 44 45 46 47 48 49 50
000
ASUS46 KSGX 251111
RWRSGX

SAN DIEGO HOURLY WEATHER ROUNDUP
NATIONAL WEATHER SERVICE SAN DIEGO CA
400 AM PDT TUE APR 25 2017

NOTE: "FAIR" INDICATES FEW OR NO CLOUDS BELOW 12,000 FEET WITH NO
SIGNIFICANT WEATHER AND/OR OBSTRUCTIONS TO VISIBILITY.

CAZ042-043-060-061-PZZ750-775-251200-

GREATER SAN DIEGO AREA

CITY           SKY/WX    TMP DP  RH WIND       PRES   REMARKS
SAN DIEGO AP   MOCLDY    62  53  72 SW9       29.88F
NATIONAL CITY    N/A     61  56  83 CALM      29.88F
CHULA VISTA      N/A     60  56  89 CALM      29.80F
IMPERIAL BEACH CLOUDY    60  55  83 S3        29.88F
BROWN FIELD    CLOUDY    58  54  86 S7        29.87F
MIRAMAR MCAS   MOCLDY    63  53  70 S7        29.87F
MONTGOMERY FLD CLOUDY    59  53  80 S6        29.87S

$$

NORTH SAN DIEGO COUNTY

CITY           SKY/WX    TMP DP  RH WIND       PRES   REMARKS
CAMP PENDLETON CLOUDY    61  55  81 S7        29.85F HAZE
OCEANSIDE AP   CLOUDY    61  54  77 SE7       29.84F
OCEANSIDE HBR    N/A     60  56  85 E7        29.88S
VISTA            N/A     58  53  83 CALM      29.83F
CARLSBAD       CLOUDY    59  54  83 SE6       29.85F
DEL MAR          N/A     59  56  89 CALM      29.88F
LA JOLLA SCRIP   N/A     59  56  88 SE3       29.86S
FALLBROOK        N/A     58  57  96 CALM      29.84F
ESCONDIDO        N/A     58  52  79 SE1       29.87F
SAN MARCOS       N/A     57  52  81 CALM      29.87F
POWAY            N/A     58  52  80 S1        29.88F

$$

EAST SAN DIEGO COUNTY

CITY           SKY/WX    TMP DP  RH WIND       PRES   REMARKS
RAMONA         CLOUDY    55  52  89 S8        29.86F
SANTEE LAKES     N/A     60  54  81 S8        29.86F
LA MESA          N/A     57  53  86 CALM      29.80F
JAMUL            N/A     56  52  86 CALM      29.86F
DESCANSO N       N/A     47  45  92 SW6       29.80F
MT. LAGUNA OBS   N/A     39  38  97 SW12      29.49F WCI  31
CAMPO            N/A     50  50 100 SW7       29.84F

$$

ORANGE COUNTY AND THE LOS ANGELES BASIN

CITY           SKY/WX    TMP DP  RH WIND       PRES   REMARKS
JOHN WAYNE AP  PTCLDY    60  56  86 E7        29.84S
LAKE FOREST FR   N/A     56  51  83 CALM      29.74F
HUNTINGTON BCH   N/A     56  54  93 CALM      29.85S
LOS ALAMITOS   FAIR      57  54  90 CALM      29.83F
FULLERTON      PTCLDY    60  55  83 SE5       29.83F
LONG BEACH     PTCLDY    59  53  80 CALM      29.84S
L.A. AP        PTCLDY    65  44  46 NW8       29.84F
L.A. DOWNTOWN  CLEAR     60  54  80 CALM      29.83F

$$

THE INLAND EMPIRE

CITY           SKY/WX    TMP DP  RH WIND       PRES   REMARKS
CORONA         PTCLDY    47  45  93 CALM      29.85S
CHINO          PTCLDY    52  49  89 NW3       29.86R FOG
ONTARIO        CLOUDY    57  51  80 N5        29.84S
SAN BERNARDINO CLOUDY    57  49  75 CALM      29.85F
RIVERSIDE AP   CLEAR     55  52  89 CALM      29.85S
MORENO VALLEY    N/A     52  51  95 CALM      27.97S
MARCH ARB      CLEAR     50  49  97 NW5       29.84S
HORSETHIEF CYN   N/A     51  45  80 NW2       29.84S
PERRIS           N/A     55  53  93 S6        29.87S
HEMET EAST       N/A     53  47  79 CALM      29.89F
FRENCH VALLEY  CLOUDY    55  52  88 S7        29.86S
TEMECULA         N/A     57  54  91 SW7       29.92F

$$

SAN BERNARDINO AND RIVERSIDE COUNTY MOUNTAINS

CITY           SKY/WX    TMP DP  RH WIND       PRES   REMARKS
BIG BEAR AP    PTCLDY    41  16  36 W25G39    29.88F
ANGELUS OAKS     N/A     47  23  39 CALM      29.70S
PINE COVE        N/A     43  27  54 NW8       29.73F

$$

SOUTHERN DESERT INCLUDING THE COACHELLA VALLEY

CITY           SKY/WX    TMP DP  RH WIND       PRES   REMARKS
PALM SPRINGS   PTCLDY    69  43  38 NW23G37   29.64S
PALM DESERT      N/A     67  46  46 N3        27.34
THERMAL        PTCLDY    69  45  41 NW18G31   29.63R
BLYTHE         MOCLDY    73  36  25 NW14      29.61S
IMPERIAL AP    CLEAR     67  47  48 W8        29.66R
EL CENTRO NAS  CLEAR     68  44  42 W16       29.69R
YUMA AZ        MOCLDY    67  46  47 W12G23    29.66

$$

UPPER DESERT

CITY           SKY/WX    TMP DP  RH WIND       PRES   REMARKS
VICTORVILLE AP PTCLDY    50  37  62 W22G31    29.83S
HESPERIA         N/A     52  37  57 NW1       29.91S
PALMDALE       MOCLDY    52  42  69 W18       29.90S
LANCASTER      MOCLDY    53  42  66 S24G35    29.91R
EDWARDS AFB    MOCLDY    54  39  57 W26G41    29.82R
DAGGETT        PTCLDY    56  39  53 W26G35    29.78R
29 PALMS N     PTCLDY    60  34  37 NW28G35   29.82R
NEEDLES        PTCLDY    71  38  29 W14       29.60R

$$

REGIONAL REPORTS

CITY           SKY/WX    TMP DP  RH WIND       PRES   REMARKS
SANTA BARBARA  CLEAR     55  49  80 NW5       29.88F
SANDBERG       LGT RAIN  43  42  97 N25G46    29.94F VSB 1/4
LAS VEGAS NV   MOCLDY    69  13  11 NW21      29.66R
PHOENIX AZ     MOCLDY    74  37  26 W9        29.60R
TIJUANA        CLOUDY    59  50  72 SE6       29.90F
ENSENADA NW      N/A     60  32  35 CALM      29.88F

$$

OFFSHORE ISLANDS

CITY           SKY/WX    TMP DP  RH WIND       PRES   REMARKS
CATALINA ARPT  PTCLDY    52  51  97 W10       29.87F
SAN NICOLAS IS PTCLDY   N/A N/A N/A W35G45    29.90F

$$

MARINE AND OFFSHORE BUOY REPORTS

STATION/POSITION SKY/WX   TEMP    WIND        PRES    VSBY  SWELL
                          AIR SEA DIR/SP/G                  HT/PER/DIR
                          (F)     (DEG/KT/KT) (MB)    (MI)  (FT/S/D)
TANNER BANKS               57 57  310/ 21/ 27 1013.8S         7/280/14
S CLEMENTE BASIN           59 62  300/ 25/ 29 1010.6F         7/300/10
SAN NICOLAS IS.               56                N/A           3/280/13
SO. S. ROSA ISLA           54 54  310/ 23/ 27 1014.1F         7/250/14
W. S. BARBARA CH           54 52  330/ 21/ 23 1014.4F         5/290/12
M. S. BARBARA CH                  280/ 19/ 25 1012.5F
S. MONICA BASIN            60 58  310/ 19/ 25 1011.0S         3/240/14
S PEDRO CHANNEL               61                N/A           3/260/11
CMP PENDLETON NS              62                N/A           3/260/11
OCEANSIDE OFFSHR              62                N/A           3/200/14
TORREY PINES OTR              63                N/A           3/280/11
POINT LOMA SOUTH              63                N/A           5/260/12

$$




USA.gov is the U.S. government's official web portal to all federal, state and local government web resources and services.